カタログに戻る

CZ-4C R/B

運用中SSO
NORAD 41039·ROCKET BODY·🇨🇳 China

打ち上げ Nov 26, 2015 から Taiyuan Satellite Launch Center

Loading…

次のパス (今後24時間)

TLE

最新Source: Space-Track

元期: Sep 13, 2026, 22:51 UTC

1 41039U 15069B   26256.95244502  .00007292  00000-0  21621-3 0  9995
2 41039  97.4681 327.8836 0053616 206.7286 153.1191 15.33704385595710

AllMySatでCZ-4C R/Bをリアルタイム追跡

Download on the App Store